[[{"header":{"parameterUnit":"m.s-1","parameterCategory":2,"la1":30.2991,"la2":30.254,"lo1":-89.0895,"lo2":-89.0444,"dy":0.0017,"dx":0.0017,"nx":28,"ny":28,"refTime":"2023-10-30T03:00:00:Z","depth":"0","parameterNumber":2,"parameterNumberName":"U-component_of_CURRENTS"},"data":[0,0,0,0,0,0,0,0,0,0,0,0,0,0,0,0,0,0,0,0,0,0,0,0,0,0,0,0,0,0,0,0,0,0,0,0,0,0,0,0,0,0,0,0,0,0,0,0,0,0,0,0,0,0,0,0,0,0,0.4757,0.4758,0,0.4783,0.4784,0.4784,0.4786,0.4785,0.4785,0.4785,0.4739,0.4738,0.4737,0,0,0,0,0,0,0,0,0,0,0,0,0,0.475,0.475,0.4757,0.4758,0.4758,0.4783,0.4784,0.4784,0.4786,0.4785,0.4785,0.4785,0.4739,0.4738,0.4737,0,0,0,0,0,0,0,0,0,0,0,0,0,0.4762,0.475,0.4757,0.4762,0.4763,0.4783,0.4784,0.4784,0.4786,0.4785,0.4785,0.4785,0.474,0.4738,0.4737,0.4736,0,0,0.4733,0.4732,0,0,0,0,0,0,0,0,0.4761,0.4762,0.4761,0.4762,0.4763,0.4781,0.4764,0.4764,0.4786,0.4777,0.4785,0.4784,0.4747,0.4745,0.4751,0.4734,0.4732,0.4732,0.4731,0.4731,0.473,0,0,0,0,0,0,0,0.476,0.4761,0.4767,0.4762,0.4763,0.4777,0.4778,0.4765,0.4762,0.4777,0.4778,0.4781,0.4747,0.4753,0.475,0.4731,0.4732,0.4731,0.473,0.473,0.4744,0.4746,0,0,0,0,0,0,0.4756,0.476,0.4766,0.4768,0.4761,0.4778,0.4778,0.4775,0.4764,0.4762,0.4782,0.4781,0.4755,0.4752,0.4748,0.4782,0.4731,0.4729,0.4729,0.4743,0.4745,0.4746,0,0,0,0,0,0,0.4756,0.4756,0.4765,0.4765,0.4768,0.4778,0.4775,0.4776,0.4786,0.4768,0.4765,0.479,0.4755,0.475,0.4749,0.4779,0.4729,0.4728,0.4742,0.4744,0.4745,0.4826,0,0,0,0,0,0,0.4755,0.4756,0.476,0.4765,0.4768,0.4786,0.4775,0.4777,0.4788,0.4788,0.4774,0.4769,0.4754,0.4751,0.4747,0.4776,0.4726,0.474,0.4742,0.4745,0.4822,0.483,0.4838,0,0,0,0,0,0.4755,0.4763,0.476,0.4762,0.477,0.4787,0.479,0.4796,0.4789,0.4801,0.4792,0.477,0.4764,0.4751,0.4746,0.4775,0.4739,0.4742,0.4744,0.4818,0.4829,0.4838,0,0,0,0,0,0,0.4734,0.4764,0.4761,0.4769,0.478,0.4788,0.48,0.48,0.4804,0.48,0.478,0.4776,0.4791,0.4768,0.4754,0.4787,0.475,0.4752,0.4808,0.4817,0.4825,0.4855,0.4725,0,0,0,0,0,0.4737,0.4771,0.4776,0.4784,0.4788,0.4794,0.4803,0.4805,0.4806,0.4808,0.4804,0.4796,0.48,0.4795,0.4793,0.4801,0.4806,0.4818,0.4827,0.4834,0.4856,0.4896,0.4911,0.4755,0.4755,0.4755,0,0,0.4724,0.4752,0.4763,0.4786,0.4792,0.4809,0.4798,0.4812,0.4836,0.48,0.4831,0.4824,0.4809,0.483,0.4834,0.4813,0.4877,0.4837,0.4843,0.4862,0.4901,0.4916,0.493,0.4757,0.4757,0.4757,0,0,0.4725,0.4742,0.4768,0.4787,0.4811,0.4824,0.4829,0.4843,0.486,0.4884,0.4871,0.489,0.4882,0.4895,0.4894,0.4943,0.4922,0.4931,0.4993,0.5033,0.5046,0.5058,0.5073,0.5086,0.4932,0.4932,0.4932,0,0.4709,0.4735,0.4773,0.48,0.4813,0.4831,0.484,0.4873,0.489,0.4908,0.4902,0.4932,0.4924,0.4958,0.4986,0.4965,0.4971,0.4957,0.5045,0.5057,0.5068,0.5081,0.5094,0.4936,0.4936,0.4935,0.4935,0,0.4722,0.4746,0.476,0.4811,0.4835,0.4847,0.4887,0.4923,0.4946,0.4971,0.5017,0.5024,0.5037,0.5047,0.5036,0.5106,0.5079,0.5054,0.5024,0.5089,0.5097,0.511,0.4942,0.4941,0.4939,0.4938,0,0,0.4671,0.4753,0.4757,0.4776,0.4837,0.485,0.4915,0.4964,0.5006,0.5049,0.5101,0.5139,0.5143,0.5145,0.5136,0.5188,0.5276,0.5163,0.5163,0.5185,0.535,0.5274,0.5279,0.5265,0.5268,0.527,0.5321,0,0.4659,0.4709,0.4757,0.4792,0.4809,0.4864,0.4923,0.4981,0.5039,0.5106,0.5147,0.5189,0.5178,0.519,0.5242,0.5279,0.5313,0.5263,0.5279,0.5279,0.521,0.5293,0.516,0.519,0.5333,0.5335,0.5336,0,0.4642,0.4688,0.4717,0.4787,0.4797,0.483,0.4918,0.4974,0.5087,0.513,0.5194,0.5227,0.5317,0.5292,0.5394,0.5361,0.5364,0.5388,0.5389,0.5304,0.5227,0.515,0.5207,0.5124,0.5355,0.5353,0.5352,0,0.4584,0.465,0.4675,0.4696,0.4786,0.4815,0.4867,0.4975,0.5033,0.5152,0.5213,0.5295,0.5354,0.5402,0.5461,0.5431,0.5571,0.5518,0.5443,0.5436,0.532,0.5298,0.5306,0.5574,0.5574,0.5574,0.5574,0,0.455,0.4569,0.465,0.4664,0.4707,0.4776,0.4833,0.4916,0.5028,0.5107,0.5213,0.5294,0.5392,0.5479,0.5498,0.5528,0.5589,0.5483,0.546,0.5341,0.5321,0.5238,0.5189,0.5576,0.5576,0.5575,0.5575,0,0.4491,0.4537,0.4573,0.4656,0.4681,0.4715,0.4808,0.4857,0.4983,0.5099,0.5143,0.5317,0.5446,0.5526,0.5621,0.5568,0.546,0.5578,0.5424,0.5383,0.5197,0.5156,0.4911,0.4763,0.5498,0.5497,0.5496,0,0.447,0.4483,0.4559,0.4574,0.4611,0.4663,0.4702,0.482,0.4882,0.5108,0.5163,0.534,0.5449,0.5572,0.5556,0.5571,0.5417,0.5392,0.5306,0.5198,0.5137,0.4906,0.4783,0.5181,0.5177,0.5174,0.5172,0,0.4433,0.4458,0.4485,0.4523,0.4553,0.4595,0.4664,0.4705,0.4861,0.4965,0.5131,0.5247,0.5416,0.5392,0.5416,0.5402,0.516,0.5327,0.5267,0.4945,0.4643,0.4485,0.5126,0.5145,0.5148,0.515,0.5151,0.5152,0.4389,0.44,0.4425,0.4445,0.4479,0.4508,0.4485,0.4581,0.4655,0.4769,0.498,0.5057,0.5187,0.523,0.5181,0.5038,0.4969,0.4904,0.4881,0.467,0.4466,0.504,0.4997,0.4999,0.5001,0.5002,0.5003,0,0.4301,0.4316,0.4343,0.4341,0.4315,0.4384,0.4428,0.4376,0.4391,0.4567,0.4667,0.4739,0.4762,0.4823,0.4808,0.4647,0.44,0.4528,0.4216,0.413,0.4718,0.4649,0.4466,0.4466,0.4466,0.4466,0.4466,0.4466,0.4246,0.4217,0.4227,0.4152,0.4151,0.4061,0.4042,0.4025,0.4085,0.4083,0.4091,0.42,0.4437,0.4584,0.4496,0.4386,0.4069,0.3875,0.3827,0.4337,0.4371,0.4403,0.4329,0.4081,0.4081,0.3085,0.3078,0.3073]},{"header":{"parameterUnit":"m.s-1","parameterCategory":2,"la1":30.2991,"la2":30.254,"lo1":-89.0895,"lo2":-89.0444,"dy":0.0017,"dx":0.0017,"nx":28,"ny":28,"refTime":"2023-10-30T03:00:00:Z","depth":"0","parameterNumber":3,"parameterNumberName":"V-component_of_CURRENTS"},"data":[0,0,0,0,0,0,0,0,0,0,0,0,0,0,0,0,0,0,0,0,0,0,0,0,0,0,0,0,0,0,0,0,0,0,0,0,0,0,0,0,0,0,0,0,0,0,0,0,0,0,0,0,0,0,0,0,0,0,-0.0488,-0.0488,0,-0.0542,-0.0543,-0.0544,-0.0595,-0.0596,-0.0596,-0.0596,-0.0656,-0.0657,-0.0658,0,0,0,0,0,0,0,0,0,0,0,0,0,-0.0428,-0.0429,-0.0488,-0.0488,-0.0489,-0.0542,-0.0543,-0.0544,-0.0595,-0.0596,-0.0596,-0.0597,-0.0656,-0.0657,-0.0658,0,0,0,0,0,0,0,0,0,0,0,0,0,-0.0467,-0.0429,-0.0488,-0.0519,-0.0522,-0.0542,-0.0543,-0.0544,-0.0595,-0.0596,-0.0596,-0.0597,-0.0655,-0.0657,-0.0659,-0.0656,0,0,-0.0664,-0.0665,0,0,0,0,0,0,0,0,-0.0465,-0.0469,-0.0514,-0.0517,-0.0521,-0.0561,-0.0543,-0.0581,-0.0595,-0.057,-0.0596,-0.0597,-0.0623,-0.0627,-0.0639,-0.0659,-0.0661,-0.0664,-0.0665,-0.0666,-0.0666,0,0,0,0,0,0,0,-0.0462,-0.0467,-0.0512,-0.0514,-0.0518,-0.053,-0.0537,-0.0551,-0.0594,-0.0572,-0.0575,-0.0578,-0.0625,-0.0637,-0.0641,-0.0662,-0.0664,-0.0666,-0.0667,-0.0667,-0.068,-0.0679,0,0,0,0,0,0,-0.045,-0.0465,-0.051,-0.0513,-0.0491,-0.053,-0.0538,-0.0549,-0.0593,-0.06,-0.0577,-0.058,-0.0634,-0.0638,-0.0643,-0.062,-0.0666,-0.0667,-0.0668,-0.0681,-0.068,-0.0679,0,0,0,0,0,0,-0.0449,-0.0454,-0.0508,-0.0488,-0.0495,-0.053,-0.0543,-0.055,-0.0559,-0.0597,-0.0604,-0.0578,-0.0634,-0.064,-0.0646,-0.0624,-0.0668,-0.067,-0.0681,-0.068,-0.0679,-0.059,0,0,0,0,0,0,-0.0447,-0.0454,-0.046,-0.0487,-0.0496,-0.0509,-0.0542,-0.055,-0.0558,-0.0563,-0.06,-0.0607,-0.0635,-0.0643,-0.0648,-0.0627,-0.0671,-0.0682,-0.0681,-0.068,-0.0593,-0.0586,-0.0579,0,0,0,0,0,-0.0445,-0.044,-0.046,-0.0465,-0.0503,-0.0508,-0.0513,-0.0542,-0.0557,-0.0554,-0.0579,-0.0606,-0.0638,-0.0644,-0.065,-0.0629,-0.0683,-0.0681,-0.068,-0.0597,-0.0587,-0.0579,0,0,0,0,0,0,-0.0393,-0.0445,-0.0468,-0.0473,-0.0488,-0.0516,-0.0512,-0.0533,-0.0551,-0.0552,-0.0594,-0.0601,-0.0601,-0.0627,-0.0632,-0.063,-0.0666,-0.0665,-0.0601,-0.0592,-0.0585,-0.0555,-0.0673,0,0,0,0,0,-0.039,-0.0419,-0.0446,-0.045,-0.0452,-0.0482,-0.0488,-0.0505,-0.0523,-0.0532,-0.0562,-0.0587,-0.0599,-0.0604,-0.0625,-0.0618,-0.0627,-0.0611,-0.0604,-0.0597,-0.0578,-0.0585,-0.0576,-0.0674,-0.0674,-0.0674,0,0,-0.0363,-0.0402,-0.0411,-0.0445,-0.0457,-0.0439,-0.0487,-0.0484,-0.0469,-0.0533,-0.0525,-0.0563,-0.0592,-0.0588,-0.059,-0.0606,-0.057,-0.0595,-0.0589,-0.0573,-0.0582,-0.0572,-0.0564,-0.0673,-0.0673,-0.0673,0,0,-0.0316,-0.036,-0.0358,-0.0368,-0.0388,-0.0406,-0.04,-0.0424,-0.0435,-0.0438,-0.0475,-0.0498,-0.0524,-0.0539,-0.0548,-0.0512,-0.0534,-0.052,-0.0453,-0.046,-0.0452,-0.0445,-0.042,-0.0412,-0.0513,-0.0513,-0.0512,0,-0.0282,-0.0288,-0.035,-0.0338,-0.0329,-0.0382,-0.0341,-0.0357,-0.0384,-0.0374,-0.0424,-0.0454,-0.0499,-0.0469,-0.0468,-0.0494,-0.0488,-0.0482,-0.0449,-0.0442,-0.0436,-0.0413,-0.0405,-0.0508,-0.0509,-0.0509,-0.0509,0,-0.0222,-0.0224,-0.0212,-0.0228,-0.0226,-0.0203,-0.0224,-0.0229,-0.0261,-0.0275,-0.0274,-0.0344,-0.0358,-0.0383,-0.0419,-0.0388,-0.0392,-0.044,-0.0466,-0.042,-0.04,-0.0392,-0.0502,-0.0503,-0.0505,-0.0506,0,0,-0.0149,-0.0168,-0.0162,-0.0142,-0.0164,-0.0145,-0.0125,-0.0107,-0.0072,-0.0133,-0.0088,-0.0157,-0.0203,-0.0217,-0.0271,-0.0289,-0.026,-0.0339,-0.0342,-0.0304,-0.0239,-0.0263,-0.0258,-0.0298,-0.0297,-0.0296,-0.0232,0,-0.0076,-0.0031,-0.0062,0.0008,0.0041,0.0004,0.0034,0.0038,0.0018,0.0041,-0.0027,-0.0016,-0.0133,-0.0137,-0.0176,-0.0234,-0.024,-0.027,-0.0298,-0.0297,-0.0317,-0.0251,-0.0221,-0.0165,-0.0225,-0.0224,-0.0223,0,-0.0,0.0015,0.0091,0.0125,0.0142,0.0178,0.0223,0.0244,0.0252,0.0238,0.0218,0.0167,0.014,0.0023,-0.0051,-0.0059,-0.0136,-0.0195,-0.0195,-0.0244,-0.031,-0.0226,-0.015,-0.0366,-0.0213,-0.0214,-0.0214,0,0.0081,0.0128,0.0191,0.0204,0.0234,0.0275,0.0298,0.0315,0.0363,0.038,0.0421,0.0352,0.0349,0.0228,0.0079,0.0026,0.001,-0.0084,-0.0167,-0.0168,-0.0161,-0.0164,-0.0288,-0.0122,-0.0122,-0.0122,-0.0122,0,0.016,0.0212,0.024,0.0278,0.0379,0.0369,0.0478,0.0482,0.0532,0.064,0.0538,0.0614,0.0399,0.0352,0.0177,0.0049,0.0085,-0.0124,-0.015,-0.0128,-0.0129,-0.0335,-0.048,-0.012,-0.012,-0.0121,-0.0121,0,0.0228,0.0241,0.0322,0.0383,0.0416,0.049,0.0596,0.0675,0.0704,0.0842,0.0865,0.0837,0.0788,0.0582,0.0419,0.0209,-0.0054,0.0011,0.0065,0.0043,-0.0289,-0.0429,-0.0562,-0.0675,-0.0077,-0.0078,-0.0078,0,0.0261,0.0307,0.0406,0.0474,0.0509,0.0618,0.0703,0.0754,0.0858,0.1005,0.11,0.1097,0.1149,0.0896,0.0539,0.0266,0.0018,0.0065,-0.0066,-0.0276,-0.0451,-0.0553,-0.0647,-0.0003,-0.0003,-0.0002,-0.0002,0,0.0331,0.0365,0.0437,0.0573,0.0681,0.0805,0.0941,0.1052,0.1159,0.1309,0.1516,0.1582,0.1357,0.1104,0.0675,0.0442,-0.0108,0.0061,-0.0168,-0.0405,-0.0509,-0.0639,-0.0064,0.0001,0.0001,0.0001,0.0001,0.0,0.0393,0.0457,0.0559,0.0692,0.082,0.0992,0.1128,0.1306,0.1526,0.18,0.1841,0.2026,0.1597,0.1033,0.0657,-0.0031,-0.0073,-0.026,-0.0403,-0.048,-0.0628,-0.0038,-0.0014,-0.0015,-0.0015,-0.0015,-0.0016,0,0.0479,0.0552,0.0673,0.0847,0.1006,0.1051,0.129,0.1458,0.1764,0.2061,0.2281,0.2237,0.1665,0.1043,0.0116,-0.0394,-0.0607,-0.0681,-0.0826,-0.0899,-0.0361,-0.0402,-0.0446,-0.0446,-0.0446,-0.0445,-0.0445,-0.0445,0.0536,0.066,0.0716,0.098,0.1108,0.1337,0.1485,0.1752,0.2005,0.2414,0.2611,0.2714,0.2267,0.059,-0.0576,-0.0871,-0.1224,-0.1293,-0.1503,-0.1157,-0.1129,-0.1103,-0.1174,-0.138,-0.1381,-0.196,-0.1966,-0.1971]}],[{"header":{"parameterUnit":"m.s-1","parameterCategory":2,"la1":30.2991,"la2":30.254,"lo1":-89.0895,"lo2":-89.0444,"dy":0.0017,"dx":0.0017,"nx":28,"ny":28,"refTime":"2023-10-30T03:00:00:Z","depth":"2","parameterNumber":2,"parameterNumberName":"U-component_of_CURRENTS"},"data":[0,0,0,0,0,0,0,0,0,0,0,0,0,0,0,0,0,0,0,0,0,0,0,0,0,0,0,0,0,0,0,0,0,0,0,0,0,0,0,0,0,0,0,0,0,0,0,0,0,0,0,0,0,0,0,0,0,0,0.3235,0.3236,0,0.3269,0.3269,0.3269,0.3252,0.3251,0.325,0.325,0.3263,0.3264,0.3265,0,0,0,0,0,0,0,0,0,0,0,0,0,0.3204,0.3204,0.3235,0.3236,0.3237,0.3269,0.3269,0.3269,0.3252,0.3251,0.325,0.325,0.3263,0.3264,0.3265,0,0,0,0,0,0,0,0,0,0,0,0,0,0.3223,0.3204,0.3235,0.3234,0.3235,0.3269,0.3269,0.327,0.3252,0.3251,0.325,0.3249,0.3262,0.3264,0.3265,0.3292,0,0,0.3269,0.327,0,0,0,0,0,0,0,0,0.3221,0.3223,0.3234,0.3234,0.3235,0.3258,0.3263,0.3277,0.3252,0.3242,0.325,0.3249,0.3262,0.3263,0.3268,0.3293,0.3293,0.3269,0.327,0.3271,0.3271,0,0,0,0,0,0,0,0.322,0.3222,0.3246,0.3235,0.3235,0.3249,0.325,0.3266,0.3254,0.3243,0.3242,0.3251,0.3262,0.3266,0.3268,0.3294,0.3269,0.327,0.3271,0.3272,0.3378,0.3379,0,0,0,0,0,0,0.3221,0.3221,0.3245,0.3247,0.3229,0.325,0.3251,0.3249,0.3254,0.3255,0.3252,0.3251,0.3264,0.3266,0.3268,0.3343,0.3271,0.3272,0.3273,0.3376,0.3378,0.338,0,0,0,0,0,0,0.322,0.3222,0.3243,0.3238,0.3242,0.3252,0.325,0.325,0.326,0.3262,0.3262,0.3263,0.3264,0.3266,0.33,0.3341,0.3273,0.3274,0.3373,0.3376,0.3379,0.3464,0,0,0,0,0,0,0.3218,0.3221,0.3216,0.3237,0.3242,0.3268,0.3251,0.3252,0.3269,0.3267,0.3272,0.3271,0.3263,0.3299,0.3302,0.3342,0.3275,0.3371,0.3375,0.3378,0.3459,0.347,0.3479,0,0,0,0,0,0.3217,0.3217,0.3215,0.3218,0.3235,0.3269,0.3273,0.3275,0.327,0.328,0.3292,0.3271,0.3324,0.3302,0.3305,0.3346,0.3369,0.3374,0.3378,0.3454,0.3468,0.3479,0,0,0,0,0,0,0.3205,0.3217,0.3214,0.3218,0.3244,0.3268,0.3289,0.3285,0.3302,0.3307,0.3298,0.33,0.3346,0.3336,0.3311,0.3388,0.3343,0.3349,0.34,0.3413,0.3423,0.3414,0.3276,0,0,0,0,0,0.32,0.32,0.3224,0.323,0.3255,0.3274,0.3287,0.3289,0.3311,0.3317,0.3325,0.334,0.3368,0.338,0.3397,0.344,0.3443,0.3468,0.3478,0.3487,0.3483,0.3536,0.3551,0.3395,0.3395,0.3395,0,0,0.3197,0.3206,0.3205,0.3227,0.3259,0.3289,0.328,0.3315,0.3336,0.3318,0.3361,0.3377,0.3387,0.3437,0.3457,0.3433,0.3537,0.3492,0.35,0.3491,0.3542,0.3557,0.3571,0.3398,0.3397,0.3397,0,0,0.3205,0.3213,0.3222,0.3249,0.329,0.3308,0.3321,0.3357,0.3375,0.3413,0.3417,0.3454,0.3486,0.3508,0.3521,0.3596,0.3589,0.3609,0.3653,0.3706,0.3719,0.3731,0.377,0.3784,0.3613,0.3613,0.3613,0,0.3199,0.321,0.3233,0.3261,0.3287,0.332,0.3348,0.3381,0.3415,0.3446,0.3434,0.3511,0.3518,0.3587,0.3615,0.3618,0.3645,0.3607,0.372,0.3731,0.3741,0.3778,0.3792,0.3618,0.3617,0.3617,0.3616,0,0.3212,0.3232,0.3258,0.3294,0.3323,0.3363,0.3411,0.345,0.3478,0.3505,0.358,0.3601,0.3645,0.3663,0.3661,0.3749,0.3745,0.3728,0.3688,0.3762,0.3796,0.381,0.3624,0.3623,0.3621,0.362,0,0,0.3176,0.3246,0.3255,0.3274,0.3344,0.3364,0.3437,0.3503,0.3552,0.3598,0.366,0.372,0.3743,0.3759,0.3776,0.3818,0.3919,0.3811,0.3812,0.3847,0.4044,0.4001,0.4011,0.3934,0.3937,0.3939,0.4043,0,0.3183,0.322,0.326,0.3307,0.3338,0.3403,0.346,0.3523,0.3591,0.3663,0.3719,0.3782,0.378,0.3812,0.3864,0.3908,0.3957,0.3892,0.3967,0.3969,0.392,0.4026,0.3706,0.3769,0.4056,0.4059,0.406,0,0.3178,0.3204,0.3243,0.3309,0.3333,0.3372,0.3472,0.3526,0.3653,0.3705,0.3795,0.3845,0.394,0.3909,0.4035,0.4002,0.4032,0.4051,0.4056,0.399,0.3951,0.3739,0.3782,0.4083,0.4081,0.4079,0.4078,0,0.3117,0.319,0.3213,0.3237,0.3321,0.3368,0.3426,0.3547,0.3619,0.3748,0.382,0.3924,0.3998,0.4055,0.4129,0.4095,0.425,0.4201,0.4186,0.4183,0.3908,0.3876,0.4277,0.4277,0.4276,0.4276,0.4276,0,0.3092,0.3116,0.3193,0.3203,0.3255,0.3331,0.3417,0.3496,0.3635,0.3719,0.3846,0.3934,0.4043,0.4152,0.4174,0.4247,0.4298,0.4215,0.4219,0.3931,0.3902,0.4158,0.4143,0.428,0.4279,0.4278,0.4278,0,0.3033,0.3076,0.3111,0.3197,0.3228,0.327,0.3412,0.3472,0.3621,0.3742,0.3791,0.3985,0.4124,0.4229,0.4334,0.4317,0.4366,0.4368,0.4026,0.3988,0.4244,0.4232,0.4353,0.4353,0.4353,0.4352,0.4352,0,0.3002,0.3003,0.3091,0.3107,0.3158,0.3239,0.3291,0.3443,0.3521,0.3756,0.3802,0.4013,0.4123,0.4301,0.4305,0.4359,0.4408,0.4072,0.3937,0.4267,0.4258,0.4246,0.4235,0.3607,0.3601,0.3596,0.3591,0,0.293,0.2968,0.2997,0.3043,0.3092,0.3149,0.325,0.331,0.3481,0.3604,0.3763,0.3882,0.4085,0.4017,0.4122,0.409,0.4037,0.3971,0.4416,0.3649,0.3575,0.3563,0.3573,0.3545,0.355,0.3553,0.3556,0.3558,0.2877,0.2895,0.2928,0.2964,0.3008,0.3042,0.3039,0.3152,0.3247,0.3374,0.3585,0.366,0.3752,0.3762,0.3672,0.3605,0.3874,0.3676,0.3686,0.3703,0.361,0.3541,0.3487,0.3491,0.3494,0.3498,0.35,0,0.2787,0.2829,0.284,0.2865,0.2839,0.2922,0.2977,0.2937,0.2973,0.3143,0.3261,0.3104,0.3116,0.3198,0.3045,0.3069,0.2973,0.2924,0.2759,0.2811,0.2856,0.2712,0.2354,0.235,0.2346,0.2342,0,0,0.276,0.2728,0.2735,0.2665,0.2686,0.2616,0.2608,0.2585,0.2649,0.2659,0.2698,0.2981,0.3132,0.2703,0.2664,0.2475,0.26,0.2374,0.3308,0.3168,0.3207,0.3329,0.3174,0,0,0,0,0]},{"header":{"parameterUnit":"m.s-1","parameterCategory":2,"la1":30.2991,"la2":30.254,"lo1":-89.0895,"lo2":-89.0444,"dy":0.0017,"dx":0.0017,"nx":28,"ny":28,"refTime":"2023-10-30T03:00:00:Z","depth":"2","parameterNumber":3,"parameterNumberName":"V-component_of_CURRENTS"},"data":[0,0,0,0,0,0,0,0,0,0,0,0,0,0,0,0,0,0,0,0,0,0,0,0,0,0,0,0,0,0,0,0,0,0,0,0,0,0,0,0,0,0,0,0,0,0,0,0,0,0,0,0,0,0,0,0,0,0,0.0193,0.0193,0,0.0141,0.014,0.014,0.0106,0.0106,0.0106,0.0106,0.0038,0.0036,0.0035,0,0,0,0,0,0,0,0,0,0,0,0,0,0.0226,0.0226,0.0194,0.0193,0.0192,0.0141,0.014,0.0139,0.0107,0.0106,0.0106,0.0106,0.0038,0.0036,0.0034,0,0,0,0,0,0,0,0,0,0,0,0,0,0.0196,0.0226,0.0194,0.017,0.0167,0.0141,0.014,0.0139,0.0107,0.0106,0.0106,0.0106,0.0039,0.0037,0.0034,0.0023,0,0,0.0026,0.0025,0,0,0,0,0,0,0,0,0.0198,0.0195,0.0174,0.0172,0.0169,0.0131,0.0127,0.01,0.0107,0.0129,0.0106,0.0106,0.0068,0.0063,0.0053,0.0019,0.0017,0.0026,0.0025,0.0024,0.0023,0,0,0,0,0,0,0,0.02,0.0197,0.0172,0.0174,0.017,0.0149,0.0145,0.0121,0.01,0.0127,0.0125,0.012,0.0066,0.0056,0.0051,0.0016,0.0026,0.0024,0.0022,0.0021,-0.0032,-0.0032,0,0,0,0,0,0,0.021,0.0199,0.0174,0.0171,0.0184,0.0149,0.0144,0.0143,0.01,0.0094,0.012,0.0118,0.006,0.0054,0.0049,0.0048,0.0024,0.0021,0.002,-0.0032,-0.0032,-0.0032,0,0,0,0,0,0,0.0211,0.0209,0.0176,0.0184,0.0178,0.0149,0.0147,0.0142,0.0134,0.0095,0.0088,0.0119,0.006,0.0052,0.0035,0.0045,0.002,0.0018,-0.0032,-0.0032,-0.0032,0.0038,0,0,0,0,0,0,0.0212,0.0209,0.0218,0.0185,0.0178,0.0173,0.0147,0.0141,0.0132,0.0129,0.0092,0.0085,0.0059,0.0039,0.0032,0.0041,0.0016,-0.0032,-0.0032,-0.0032,0.0035,0.004,0.0045,0,0,0,0,0,0.0214,0.0228,0.0218,0.0215,0.0189,0.0174,0.0169,0.0146,0.0132,0.0137,0.0108,0.0086,0.0035,0.0037,0.0029,0.0038,-0.0032,-0.0032,-0.0032,0.0033,0.0039,0.0045,0,0,0,0,0,0,0.0244,0.0225,0.0214,0.0221,0.0204,0.0169,0.0169,0.0152,0.0132,0.0128,0.009,0.0081,0.0068,0.0042,0.0045,0.0021,-0.0003,-0.0005,0.0049,0.0054,0.0059,0.0088,0.0014,0,0,0,0,0,0.0256,0.0265,0.0236,0.0244,0.0234,0.0202,0.0194,0.0178,0.0154,0.0145,0.0117,0.0086,0.0062,0.0051,0.0024,0.0015,-0.0016,0.0012,0.0017,0.0021,0.0038,-0.0006,-0.0004,-0.0031,-0.0031,-0.0031,0,0,0.0268,0.0262,0.0265,0.0252,0.0233,0.0237,0.0197,0.0188,0.0196,0.014,0.0139,0.0101,0.0062,0.0051,0.0042,0.0032,0.0012,0.0022,0.0026,0.0041,-0.0006,-0.0003,-0.0001,-0.0031,-0.0031,-0.0031,0,0,0.0302,0.029,0.0308,0.0299,0.028,0.0266,0.0267,0.0234,0.022,0.0212,0.0172,0.0145,0.0109,0.0085,0.0068,0.0082,0.0036,0.0066,0.0116,0.0073,0.0075,0.0077,0.0041,0.0038,0.0071,0.0071,0.0071,0,0.0322,0.0338,0.0311,0.0323,0.0327,0.0284,0.0304,0.0285,0.0254,0.0249,0.0223,0.0167,0.013,0.0119,0.0121,0.0095,0.0062,0.0101,0.008,0.0081,0.0082,0.0044,0.0041,0.0074,0.0074,0.0073,0.0073,0,0.0362,0.0378,0.0385,0.0395,0.0396,0.0404,0.0377,0.037,0.0347,0.0328,0.0305,0.0245,0.0217,0.0192,0.0162,0.0148,0.0121,0.009,0.0071,0.0089,0.0048,0.0043,0.0079,0.0078,0.0077,0.0076,0,0,0.0401,0.0414,0.0418,0.0443,0.0436,0.0445,0.0452,0.0452,0.0468,0.0415,0.0426,0.0364,0.0325,0.0303,0.0249,0.0208,0.0176,0.0158,0.0154,0.0132,0.0082,0.0057,0.0049,0.0136,0.0136,0.0136,0.0052,0,0.0444,0.0496,0.0487,0.0542,0.0567,0.054,0.0561,0.0554,0.0533,0.053,0.0455,0.0442,0.0369,0.0354,0.0302,0.0212,0.0167,0.0202,0.006,0.0057,0.004,0.0044,0.0074,0.0002,0.0047,0.0046,0.0046,0,0.0485,0.0521,0.0583,0.0632,0.0638,0.0665,0.0695,0.071,0.0686,0.0666,0.0625,0.0564,0.0503,0.0432,0.0291,0.0315,0.0211,0.0131,0.0125,0.0078,0.0023,-0.001,-0.0009,0.0037,0.0038,0.0039,0.0039,0,0.0538,0.0589,0.0652,0.0665,0.0707,0.073,0.0753,0.0753,0.0786,0.0754,0.077,0.0668,0.0635,0.0489,0.032,0.0303,0.016,0.0112,-0.001,-0.0014,-0.0025,-0.0028,0.001,0.001,0.001,0.001,0.001,0,0.0594,0.0641,0.0683,0.0717,0.0804,0.0802,0.0882,0.0881,0.09,0.0964,0.0852,0.0865,0.0647,0.0535,0.036,0.0171,0.0186,0.0007,-0.0035,-0.0001,-0.0001,0.0,0.0,0.0007,0.0008,0.0008,0.0009,0,0.0644,0.0667,0.0745,0.0804,0.0833,0.0896,0.098,0.1034,0.104,0.1115,0.1112,0.1016,0.087,0.0646,0.0412,0.0242,0.005,-0.0025,0.0034,0.0001,-0.0107,-0.0103,-0.0171,-0.0172,-0.0174,-0.0175,-0.0176,0,0.0676,0.0722,0.0817,0.0876,0.0906,0.0998,0.1066,0.1103,0.1173,0.1218,0.1264,0.1145,0.1088,0.0733,0.0403,0.0093,0.005,-0.0091,-0.0125,-0.0091,-0.0125,-0.0118,-0.0112,-0.0117,-0.0117,-0.0117,-0.0118,0,0.0742,0.0771,0.0835,0.0958,0.1043,0.1157,0.1256,0.1336,0.1398,0.1458,0.1513,0.1469,0.1139,0.082,0.0385,0.0174,-0.0043,-0.0107,-0.0086,-0.0072,-0.0046,-0.0077,-0.0072,-0.012,-0.012,-0.012,-0.012,-0.0119,0.0789,0.0844,0.0929,0.1048,0.1157,0.1302,0.1402,0.1512,0.1646,0.1746,0.1696,0.164,0.1277,0.0722,0.0338,-0.007,-0.0049,-0.0194,-0.0191,-0.0188,-0.0163,-0.014,-0.0227,-0.0227,-0.0228,-0.0228,-0.0228,0,0.085,0.091,0.1014,0.1157,0.1281,0.1337,0.1521,0.1619,0.1781,0.1865,0.1901,0.1563,0.1205,0.0784,0.018,-0.0175,-0.0198,-0.0289,-0.024,-0.0234,-0.0229,-0.0206,-0.0283,-0.0284,-0.0285,-0.0286,0,0,0.0882,0.0982,0.103,0.1236,0.1342,0.1521,0.1633,0.1778,0.1878,0.1952,0.1925,0.1851,0.1344,0.0898,0.041,0.0059,-0.0004,-0.0007,0.0078,0.02,0.0208,-0.0133,-0.0084,0,0,0,0,0]}],[{"header":{"parameterUnit":"m.s-1","parameterCategory":2,"la1":30.2991,"la2":30.254,"lo1":-89.0895,"lo2":-89.0444,"dy":0.0017,"dx":0.0017,"nx":28,"ny":28,"refTime":"2023-10-30T03:00:00:Z","depth":"4","parameterNumber":2,"parameterNumberName":"U-component_of_CURRENTS"},"data":[0,0,0,0,0,0,0,0,0,0,0,0,0,0,0,0,0,0,0,0,0,0,0,0,0,0,0,0,0,0,0,0,0,0,0,0,0,0,0,0,0,0,0,0,0,0,0,0,0,0,0,0,0,0,0,0,0,0,0.1925,0.1926,0,0.2012,0.2013,0.2014,0.2071,0.2072,0.2073,0.2074,0.2193,0.2196,0.2198,0,0,0,0,0,0,0,0,0,0,0,0,0,0.1795,0.1796,0.1924,0.1926,0.1927,0.2012,0.2013,0.2014,0.2071,0.2072,0.2073,0.2074,0.2193,0.2195,0.2198,0,0,0,0,0,0,0,0,0,0,0,0,0,0.1859,0.1797,0.1924,0.1969,0.1975,0.2012,0.2013,0.2014,0.2071,0.2072,0.2073,0.2074,0.2192,0.2195,0.2199,0.2199,0,0,0.221,0.2212,0,0,0,0,0,0,0,0,0.1856,0.1864,0.1961,0.1966,0.1972,0.2036,0.2011,0.2079,0.2071,0.203,0.2074,0.2075,0.2145,0.2153,0.2161,0.2205,0.221,0.2211,0.2213,0.2214,0.2216,0,0,0,0,0,0,0,0.1851,0.186,0.1955,0.1963,0.197,0.1981,0.1991,0.2024,0.2078,0.2034,0.2039,0.2055,0.2148,0.2157,0.2164,0.2212,0.221,0.2214,0.2216,0.2218,0.2385,0.2387,0,0,0,0,0,0,0.1848,0.1856,0.1952,0.1958,0.192,0.1983,0.1994,0.2011,0.2077,0.2089,0.2054,0.2057,0.215,0.216,0.2169,0.2287,0.2214,0.2218,0.222,0.2383,0.2385,0.2388,0,0,0,0,0,0,0.1845,0.1856,0.1949,0.1912,0.1925,0.1985,0.2002,0.2012,0.2067,0.2093,0.2105,0.2105,0.2151,0.2163,0.2241,0.2288,0.222,0.2223,0.238,0.2383,0.2386,0.2452,0,0,0,0,0,0,0.1841,0.1854,0.1884,0.1912,0.1928,0.2002,0.2002,0.2013,0.2074,0.2081,0.214,0.2149,0.2153,0.2235,0.2245,0.2292,0.2226,0.2377,0.2382,0.2385,0.2447,0.2457,0.2466,0,0,0,0,0,0.1836,0.1863,0.1885,0.1898,0.196,0.2004,0.2013,0.2055,0.2076,0.2107,0.2152,0.215,0.2268,0.224,0.2251,0.23,0.2375,0.238,0.2385,0.2443,0.2455,0.2465,0,0,0,0,0,0,0.1825,0.1873,0.1897,0.194,0.1986,0.2016,0.2054,0.2081,0.2139,0.2161,0.2179,0.2192,0.2277,0.2282,0.225,0.2361,0.2321,0.2328,0.2361,0.2373,0.2382,0.2387,0.2229,0,0,0,0,0,0.1836,0.1874,0.1917,0.196,0.1984,0.2028,0.206,0.2092,0.2137,0.2166,0.2206,0.2252,0.2297,0.2331,0.2367,0.2429,0.2441,0.2468,0.2477,0.2485,0.2497,0.2552,0.2567,0.2404,0.2404,0.2404,0,0,0.1844,0.1878,0.1902,0.1962,0.1999,0.2041,0.205,0.2113,0.216,0.217,0.2256,0.2292,0.2322,0.2392,0.243,0.2408,0.254,0.2491,0.2498,0.2505,0.2559,0.2575,0.2589,0.2407,0.2407,0.2406,0,0,0.1862,0.1912,0.1943,0.1985,0.2055,0.2083,0.2113,0.2171,0.2214,0.2294,0.2313,0.2381,0.245,0.2479,0.25,0.2585,0.2588,0.2603,0.2656,0.271,0.2724,0.2736,0.2776,0.2791,0.2606,0.2607,0.2607,0,0.1875,0.1919,0.1961,0.2002,0.2045,0.2107,0.2151,0.22,0.2282,0.2325,0.2337,0.2462,0.2489,0.2569,0.2601,0.2607,0.2635,0.2608,0.2722,0.2734,0.2745,0.2783,0.2799,0.261,0.261,0.2609,0.2609,0,0.1903,0.1956,0.1981,0.2052,0.2103,0.2159,0.2224,0.2294,0.2357,0.2404,0.2516,0.2559,0.2635,0.2653,0.2657,0.2755,0.2748,0.2726,0.2689,0.2766,0.2801,0.2816,0.2616,0.2614,0.2613,0.2612,0,0,0.188,0.198,0.1993,0.2035,0.2139,0.2176,0.2271,0.2362,0.2434,0.2523,0.2612,0.2697,0.2738,0.2765,0.2785,0.2831,0.2934,0.2823,0.2824,0.2856,0.3059,0.2872,0.287,0.2939,0.2942,0.2944,0.3053,0,0.1894,0.1964,0.202,0.2104,0.2146,0.2238,0.2315,0.2413,0.2504,0.2606,0.2679,0.2773,0.2774,0.2828,0.2881,0.2926,0.2978,0.2907,0.2987,0.2989,0.2807,0.2883,0.2954,0.3064,0.3067,0.307,0.3072,0,0.1896,0.1946,0.2022,0.213,0.2159,0.2228,0.237,0.245,0.2601,0.2675,0.279,0.2853,0.2965,0.2941,0.3071,0.3032,0.3063,0.3081,0.3085,0.2896,0.2829,0.2972,0.3099,0.3097,0.3095,0.3093,0.3092,0,0.1838,0.1946,0.2008,0.2047,0.2178,0.2246,0.2332,0.2481,0.2571,0.2736,0.2824,0.295,0.3041,0.3102,0.317,0.3139,0.3288,0.324,0.3099,0.3086,0.3193,0.3178,0.3327,0.3327,0.3327,0.3327,0.3326,0,0.181,0.1862,0.1994,0.2027,0.2117,0.2225,0.2349,0.2452,0.2622,0.2721,0.2865,0.2954,0.3092,0.3192,0.3216,0.3211,0.3336,0.3123,0.3105,0.3218,0.3206,0.3204,0.3188,0.3331,0.333,0.3329,0.3328,0,0.1729,0.1816,0.1894,0.204,0.2093,0.2162,0.2355,0.2435,0.2613,0.2751,0.2814,0.301,0.3124,0.3232,0.334,0.3258,0.327,0.3237,0.3373,0.3359,0.302,0.3007,0.3074,0.3068,0.3064,0.306,0.3056,0,0.1686,0.1723,0.1885,0.1936,0.201,0.2137,0.2218,0.2411,0.25,0.2749,0.2793,0.2988,0.3089,0.3106,0.3217,0.3255,0.3218,0.3198,0.3081,0.302,0.2997,0.2991,0.2985,0.3049,0.3047,0.3046,0.3045,0,0.1605,0.1685,0.175,0.186,0.1952,0.204,0.2177,0.2229,0.2437,0.2624,0.2716,0.2786,0.2912,0.2988,0.3055,0.3067,0.3187,0.3147,0.3155,0.3045,0.299,0.2971,0.297,0.3028,0.3031,0.3032,0.3033,0,0.1553,0.1575,0.1678,0.1759,0.1865,0.1905,0.1996,0.2098,0.2212,0.248,0.2502,0.2699,0.2879,0.2893,0.2947,0.2955,0.2897,0.2781,0.2807,0.2827,0.2694,0.2585,0.2496,0,0,0,0,0,0.1487,0.1495,0.1564,0.1635,0.1734,0.1796,0.1946,0.2042,0.2242,0.2245,0.2373,0.2472,0.2558,0.2667,0.2627,0.2831,0.2904,0.2769,0.2782,0.2936,0.2956,0.282,0,0,0,0,0,0,0.1437,0.1492,0.1516,0.1517,0.1542,0.1627,0.1713,0.1846,0.1871,0.2085,0.2157,0.2317,0.2452,0.2561,0.2579,0.261,0.2565,0.2901,0.2894,0.2926,0.2943,0.2958,0.2826,0,0,0,0,0]},{"header":{"parameterUnit":"m.s-1","parameterCategory":2,"la1":30.2991,"la2":30.254,"lo1":-89.0895,"lo2":-89.0444,"dy":0.0017,"dx":0.0017,"nx":28,"ny":28,"refTime":"2023-10-30T03:00:00:Z","depth":"4","parameterNumber":3,"parameterNumberName":"V-component_of_CURRENTS"},"data":[0,0,0,0,0,0,0,0,0,0,0,0,0,0,0,0,0,0,0,0,0,0,0,0,0,0,0,0,0,0,0,0,0,0,0,0,0,0,0,0,0,0,0,0,0,0,0,0,0,0,0,0,0,0,0,0,0,0,0.0242,0.0242,0,0.0207,0.0206,0.0206,0.0187,0.0186,0.0186,0.0186,0.0141,0.014,0.0139,0,0,0,0,0,0,0,0,0,0,0,0,0,0.0263,0.0263,0.0242,0.0242,0.0241,0.0207,0.0206,0.0206,0.0187,0.0186,0.0186,0.0186,0.0142,0.014,0.0139,0,0,0,0,0,0,0,0,0,0,0,0,0,0.0244,0.0263,0.0242,0.0228,0.0226,0.0207,0.0206,0.0206,0.0187,0.0186,0.0186,0.0186,0.0142,0.014,0.0139,0.013,0,0,0.0133,0.0133,0,0,0,0,0,0,0,0,0.0245,0.0243,0.023,0.0229,0.0227,0.0201,0.0197,0.018,0.0187,0.0202,0.0186,0.0186,0.016,0.0157,0.0151,0.0128,0.0126,0.0133,0.0132,0.0132,0.0131,0,0,0,0,0,0,0,0.0246,0.0244,0.0228,0.023,0.0228,0.0212,0.021,0.0194,0.0182,0.02,0.0199,0.0195,0.0159,0.0153,0.015,0.0125,0.0133,0.0132,0.0131,0.013,0.0095,0.0095,0,0,0,0,0,0,0.0252,0.0246,0.0229,0.0227,0.0236,0.0212,0.0209,0.0209,0.0182,0.0178,0.0195,0.0194,0.0156,0.0152,0.0148,0.0152,0.0132,0.013,0.0129,0.0095,0.0095,0.0095,0,0,0,0,0,0,0.0253,0.0251,0.0231,0.0235,0.0232,0.0212,0.0212,0.0209,0.0207,0.0178,0.0174,0.0197,0.0155,0.015,0.0141,0.015,0.0129,0.0128,0.0095,0.0095,0.0095,0.015,0,0,0,0,0,0,0.0254,0.0252,0.0259,0.0236,0.0232,0.0228,0.0212,0.0208,0.0204,0.0202,0.0178,0.0174,0.0155,0.0144,0.014,0.0147,0.0126,0.0095,0.0095,0.0095,0.0148,0.0152,0.0156,0,0,0,0,0,0.0255,0.0265,0.0259,0.0257,0.024,0.0228,0.0225,0.021,0.0204,0.0208,0.0191,0.0175,0.0142,0.0143,0.0138,0.0145,0.0095,0.0095,0.0095,0.0147,0.0151,0.0156,0,0,0,0,0,0,0.0274,0.0263,0.0257,0.0262,0.025,0.0225,0.0228,0.0216,0.0205,0.0206,0.0179,0.0173,0.0167,0.0147,0.0149,0.0134,0.0114,0.0113,0.0155,0.0159,0.0163,0.018,0.0125,0,0,0,0,0,0.0283,0.029,0.0271,0.0276,0.0272,0.0252,0.0246,0.0236,0.022,0.0216,0.0198,0.0178,0.0163,0.0155,0.0138,0.0132,0.01,0.0131,0.0134,0.0138,0.0147,0.0101,0.0101,0.0096,0.0096,0.0096,0,0,0.0289,0.0286,0.0289,0.0281,0.0272,0.0277,0.0249,0.0245,0.025,0.0213,0.0216,0.0192,0.0164,0.0158,0.0153,0.0144,0.0121,0.0138,0.0141,0.0149,0.0101,0.0102,0.0102,0.0096,0.0096,0.0096,0,0,0.0311,0.0307,0.0321,0.0316,0.0307,0.0298,0.03,0.028,0.0272,0.0269,0.0243,0.0224,0.0204,0.0183,0.017,0.0182,0.0142,0.0176,0.0209,0.0165,0.0165,0.0165,0.0121,0.0117,0.0177,0.0178,0.0178,0,0.0324,0.0338,0.0322,0.0335,0.0339,0.0313,0.0329,0.0317,0.0297,0.0295,0.0279,0.0242,0.0215,0.0205,0.021,0.0191,0.0161,0.0197,0.017,0.0169,0.0168,0.0123,0.0118,0.018,0.018,0.018,0.0179,0,0.035,0.0366,0.0374,0.0388,0.039,0.0398,0.0383,0.038,0.0368,0.0355,0.0339,0.0296,0.0276,0.0259,0.024,0.0222,0.0201,0.0181,0.0162,0.0172,0.0124,0.0117,0.0184,0.0183,0.0182,0.0182,0,0,0.037,0.0392,0.0395,0.0418,0.042,0.0428,0.0436,0.0438,0.0451,0.0415,0.042,0.0379,0.0352,0.0335,0.0297,0.0257,0.0217,0.0223,0.022,0.0186,0.0119,0.0102,0.0092,0.0192,0.0192,0.0191,0.0088,0,0.0399,0.0441,0.0441,0.0487,0.051,0.0497,0.0514,0.051,0.0498,0.0494,0.0437,0.043,0.0381,0.0373,0.0324,0.0249,0.0202,0.0247,0.0109,0.0105,0.0093,0.0085,0.0189,0.0082,0.0081,0.0079,0.0079,0,0.0424,0.0455,0.0506,0.0551,0.0559,0.0583,0.0609,0.0622,0.0604,0.0592,0.0561,0.0516,0.0461,0.0414,0.0283,0.0315,0.0226,0.0157,0.0151,0.0113,0.0075,0.0069,0.0065,0.0066,0.0067,0.0068,0.0069,0,0.0451,0.05,0.0551,0.0564,0.0606,0.0628,0.0651,0.0654,0.068,0.0657,0.0665,0.0582,0.0549,0.0427,0.0285,0.0283,0.0131,0.0107,0.0003,-0.0,0.0023,0.0024,0.0007,0.0007,0.0008,0.0008,0.0008,0,0.0481,0.0522,0.0573,0.0599,0.0671,0.0679,0.0744,0.0747,0.0764,0.0803,0.0725,0.0719,0.0551,0.0444,0.0304,0.0135,0.014,0.0008,-0.0028,0.0047,0.0053,0.0017,0.002,0.0004,0.0005,0.0006,0.0006,0,0.0501,0.0531,0.0598,0.0658,0.0688,0.0739,0.082,0.086,0.0868,0.0911,0.0909,0.082,0.0677,0.0497,0.0293,0.017,0.0003,-0.006,0.0038,0.0009,-0.0105,-0.0098,-0.0187,-0.0188,-0.019,-0.0191,-0.0192,0,0.0514,0.0553,0.0647,0.0698,0.0732,0.0814,0.0872,0.0912,0.096,0.0972,0.0991,0.0874,0.0787,0.0495,0.0292,0.0012,-0.003,-0.0121,-0.0119,-0.0099,-0.0125,-0.0116,-0.0108,-0.0194,-0.0194,-0.0194,-0.0195,0,0.0543,0.058,0.0634,0.0743,0.0819,0.0915,0.0997,0.1041,0.1086,0.1092,0.1061,0.0907,0.0741,0.05,0.0281,0.0081,-0.0065,-0.0135,-0.0134,-0.0133,-0.0108,-0.0131,-0.0121,-0.0199,-0.0198,-0.0198,-0.0198,0,0.0566,0.0607,0.0685,0.078,0.0884,0.0984,0.1028,0.1082,0.1132,0.1138,0.1122,0.0944,0.084,0.0535,0.0336,0.0132,0.0074,0.0004,-0.0004,-0.0002,0.0077,0.0138,0.0093,0,0,0,0,0,0.0584,0.063,0.0715,0.082,0.0925,0.0993,0.11,0.1135,0.1176,0.1165,0.115,0.0995,0.0698,0.0571,0.0365,0.0291,0.0025,0.0039,-0.0062,-0.0223,-0.0218,-0.0159,0,0,0,0,0,0,0.0593,0.0669,0.071,0.0842,0.0918,0.1042,0.1116,0.1146,0.1144,0.1148,0.0999,0.0929,0.0642,0.0814,0.0355,0.0294,0.0197,-0.0096,-0.0101,-0.0226,-0.0221,-0.0217,-0.0155,0,0,0,0,0]}]]